AWQ123 WIII-WILL

Flight info

Callsign AWQ123
Flight time 0h 20m
Altitude 14000
Route GUDBA1E GUDBA DCT IDOGA DCT
Aircraft A333/M-V/N

Departure

Time 2026-04-22 01:30
Airport Soekarno-Hatta International Airport (WIII)

Arrival

Time 2026-04-22 01:50
Airport Radin Inten II International Airport (WILL)
Time Latitude Longitude Altitude Speed Heading
2026-04-22 00:50 -6.13487 106.65338 46 ft 0 kts 160°
2026-04-22 01:15 -6.13474 106.65334 46 ft 2 kts 160°
2026-04-22 01:15 -6.13465 106.65331 46 ft 1 kts 160°
2026-04-22 01:15 -6.13453 106.65322 47 ft 2 kts 118°
2026-04-22 01:16 -6.13449 106.65313 47 ft 2 kts 93°
2026-04-22 01:16 -6.13450 106.65303 47 ft 0 kts 69°
2026-04-22 01:16 -6.13451 106.65299 47 ft 0 kts 68°
2026-04-22 01:17 -6.13451 106.65301 46 ft 3 kts 68°
2026-04-22 01:17 -6.13429 106.65353 47 ft 0 kts 66°
2026-04-22 01:18 -6.13418 106.65379 47 ft 10 kts 66°
2026-04-22 01:19 -6.13375 106.65491 46 ft 23 kts 79°
2026-04-22 01:19 -6.13405 106.65611 46 ft 31 kts 110°
2026-04-22 01:19 -6.13424 106.65923 44 ft 32 kts 78°
2026-04-22 01:19 -6.13373 106.66072 42 ft 35 kts 68°
2026-04-22 01:20 -6.13275 106.66322 39 ft 41 kts 69°
2026-04-22 01:20 -6.13126 106.66711 35 ft 48 kts 69°
2026-04-22 01:20 -6.12999 106.67037 33 ft 51 kts 65°
2026-04-22 01:20 -6.12891 106.67299 35 ft 0 kts 68°
2026-04-22 01:21 -6.12889 106.67303 36 ft 2 kts 68°
2026-04-22 01:22 -6.12876 106.67342 36 ft 8 kts 79°
2026-04-22 01:22 -6.12902 106.67409 36 ft 12 kts 157°
2026-04-22 01:22 -6.12966 106.67422 36 ft 16 kts 176°
2026-04-22 01:22 -6.12994 106.67423 36 ft 0 kts 176°
2026-04-22 01:24 -6.12997 106.67423 36 ft 2 kts 182°
2026-04-22 01:24 -6.13020 106.67413 36 ft 4 kts 211°
2026-04-22 01:24 -6.13044 106.67391 36 ft 4 kts 228°
2026-04-22 01:25 -6.13064 106.67354 35 ft 4 kts 250°
2026-04-22 01:25 -6.13066 106.67351 35 ft 0 kts 249°
2026-04-22 01:28 -6.13066 106.67350 35 ft 0 kts 249°
2026-04-22 01:28 -6.13082 106.67307 35 ft 25 kts 248°
2026-04-22 01:29 -6.13237 106.66931 34 ft 91 kts 246°
2026-04-22 01:29 -6.13557 106.66135 43 ft 147 kts 247°
2026-04-22 01:29 -6.13974 106.65078 200 ft 174 kts 249°
2026-04-22 01:29 -6.14310 106.63855 547 ft 192 kts 259°
2026-04-22 01:30 -6.14583 106.61971 1133 ft 214 kts 261°
2026-04-22 01:30 -6.14800 106.60977 1447 ft 224 kts 253°
2026-04-22 01:30 -6.15397 106.59515 1951 ft 235 kts 241°
2026-04-22 01:30 -6.16265 106.58085 2513 ft 241 kts 239°
2026-04-22 01:31 -6.17124 106.56622 3096 ft 247 kts 243°
2026-04-22 01:31 -6.17837 106.55032 3669 ft 253 kts 251°
2026-04-22 01:31 -6.18524 106.52740 4432 ft 260 kts 256°
2026-04-22 01:31 -6.19067 106.50987 4927 ft 268 kts 251°
2026-04-22 01:32 -6.19511 106.49792 5106 ft 279 kts 249°
2026-04-22 01:32 -6.20277 106.47944 5341 ft 298 kts 248°
2026-04-22 01:32 -6.21008 106.45872 5594 ft 331 kts 253°
2026-04-22 01:32 -6.21667 106.43539 5929 ft 364 kts 256°
2026-04-22 01:33 -6.22325 106.41004 6690 ft 381 kts 258°
2026-04-22 01:33 -6.22486 106.37539 8544 ft 373 kts 282°
2026-04-22 01:33 -6.21929 106.35953 9468 ft 361 kts 298°
2026-04-22 01:33 -6.20388 106.34072 10698 ft 345 kts 323°
2026-04-22 01:34 -6.18385 106.32834 11751 ft 337 kts 333°
2026-04-22 01:34 -6.16309 106.31718 12477 ft 341 kts 331°
2026-04-22 01:34 -6.14305 106.30369 13115 ft 349 kts 323°
2026-04-22 01:34 -6.12506 106.28668 13693 ft 358 kts 314°
2026-04-22 01:35 -6.10871 106.26769 14241 ft 366 kts 310°
2026-04-22 01:35 -6.09173 106.24799 14793 ft 373 kts 315°
2026-04-22 01:35 -6.07286 106.22977 15358 ft 379 kts 319°
2026-04-22 01:35 -6.05318 106.21186 15819 ft 388 kts 319°
2026-04-22 01:36 -6.03244 106.19349 15867 ft 409 kts 320°
2026-04-22 01:36 -6.00991 106.17440 15947 ft 426 kts 322°
2026-04-22 01:36 -5.98646 106.15562 16196 ft 432 kts 323°
2026-04-22 01:36 -5.96255 106.13677 16311 ft 438 kts 323°
2026-04-22 01:37 -5.93876 106.11781 16471 ft 435 kts 323°
2026-04-22 01:37 -5.90722 106.09262 15933 ft 430 kts 322°
2026-04-22 01:37 -5.88384 106.07329 15759 ft 434 kts 320°
2026-04-22 01:37 -5.86862 106.05987 15934 ft 436 kts 319°
2026-04-22 01:38 -5.84631 106.03907 16182 ft 439 kts 317°
2026-04-22 01:38 -5.81737 106.00984 16547 ft 441 kts 315°
2026-04-22 01:38 -5.80339 105.99488 16719 ft 442 kts 314°
2026-04-22 01:38 -5.77576 105.96423 16850 ft 443 kts 312°
2026-04-22 01:39 -5.76227 105.94833 16879 ft 443 kts 311°
2026-04-22 01:39 -5.74352 105.92347 16860 ft 446 kts 306°
2026-04-22 01:39 -5.72679 105.89780 16312 ft 439 kts 303°
2026-04-22 01:39 -5.70659 105.86305 15114 ft 424 kts 300°
2026-04-22 01:40 -5.69790 105.84570 14303 ft 417 kts 295°
2026-04-22 01:40 -5.68671 105.81966 13651 ft 393 kts 293°
2026-04-22 01:40 -5.67700 105.79466 13363 ft 375 kts 291°
2026-04-22 01:40 -5.66837 105.77033 13118 ft 366 kts 290°
2026-04-22 01:41 -5.65977 105.74655 12866 ft 357 kts 291°
2026-04-22 01:41 -5.65105 105.72353 12610 ft 349 kts 292°
2026-04-22 01:41 -5.64220 105.70107 12353 ft 342 kts 293°
2026-04-22 01:41 -5.63331 105.67910 12099 ft 335 kts 294°
2026-04-22 01:42 -5.62287 105.65856 12007 ft 321 kts 302°
2026-04-22 01:42 -5.61163 105.63977 11926 ft 310 kts 302°
2026-04-22 01:42 -5.60046 105.62138 11784 ft 301 kts 302°
2026-04-22 01:42 -5.58981 105.60362 11595 ft 296 kts 302°
2026-04-22 01:43 -5.57956 105.58582 11357 ft 292 kts 300°
2026-04-22 01:43 -5.56993 105.56792 11082 ft 290 kts 298°
2026-04-22 01:43 -5.55983 105.55039 10787 ft 287 kts 304°
2026-04-22 01:43 -5.54903 105.53378 10472 ft 287 kts 304°
2026-04-22 01:44 -5.53816 105.51701 10143 ft 287 kts 303°
2026-04-22 01:44 -5.52785 105.49953 9817 ft 288 kts 299°
2026-04-22 01:44 -5.51922 105.48163 9483 ft 288 kts 295°
2026-04-22 01:44 -5.50999 105.46368 8690 ft 296 kts 302°
2026-04-22 01:45 -5.49886 105.44581 7731 ft 304 kts 304°
2026-04-22 01:45 -5.48681 105.42804 6852 ft 320 kts 306°
2026-04-22 01:45 -5.47348 105.40942 5939 ft 337 kts 307°
2026-04-22 01:45 -5.45943 105.39038 4843 ft 340 kts 307°
2026-04-22 01:46 -5.44544 105.37140 3617 ft 341 kts 308°
2026-04-22 01:46 -5.43108 105.35316 2656 ft 333 kts 309°
2026-04-22 01:46 -5.41632 105.33581 2205 ft 311 kts 312°
2026-04-22 01:46 -5.40165 105.32040 1933 ft 294 kts 316°
2026-04-22 01:47 -5.38715 105.30687 1609 ft 276 kts 318°
2026-04-22 01:47 -5.37302 105.29421 1291 ft 270 kts 319°
2026-04-22 01:47 -5.35842 105.28198 1173 ft 278 kts 322°
2026-04-22 01:47 -5.34286 105.27007 1088 ft 282 kts 323°
2026-04-22 01:48 -5.32684 105.25826 1034 ft 278 kts 322°
2026-04-22 01:48 -5.31261 105.24572 1050 ft 262 kts 314°
2026-04-22 01:48 -5.30135 105.23251 917 ft 239 kts 306°
2026-04-22 01:48 -5.29171 105.21973 678 ft 219 kts 309°
2026-04-22 01:49 -5.28090 105.20911 559 ft 214 kts 322°
2026-04-22 01:49 -5.26901 105.20085 439 ft 199 kts 323°
2026-04-22 01:49 -5.25830 105.19248 463 ft 194 kts 316°
2026-04-22 01:49 -5.24822 105.18378 277 ft 177 kts 322°
2026-04-22 01:50 -5.24048 105.17729 284 ft 91 kts 321°
2026-04-22 01:50 -5.23839 105.17560 283 ft 3 kts 321°
2026-04-22 01:50 -5.23843 105.17562 283 ft 1 kts 319°
2026-04-22 01:50 -5.23853 105.17571 283 ft 2 kts 319°
2026-04-22 01:51 -5.23892 105.17605 283 ft 17 kts 319°
2026-04-22 01:51 -5.23909 105.17625 283 ft 11 kts 334°
2026-04-22 01:51 -5.23942 105.17626 283 ft 15 kts 124°
2026-04-22 01:51 -5.24003 105.17698 283 ft 25 kts 133°
2026-04-22 01:52 -5.24133 105.17731 285 ft 16 kts 224°
2026-04-22 01:52 -5.24227 105.17743 285 ft 16 kts 143°
2026-04-22 01:52 -5.24268 105.17775 284 ft 0 kts 141°
2026-04-22 01:52 -5.24298 105.17796 284 ft 9 kts 155°
2026-04-22 01:53 -5.24342 105.17780 284 ft 5 kts 224°
2026-04-22 01:53 -5.24348 105.17773 284 ft 0 kts 227°